Weather History for New Haven, CT

Change the Weather History Date:

Tuesday, November 20, 2012

  Actual Average Record
Temperature  
Mean Temperature 42 °F -  
Max Temperature 51 °F 49 °F 68 °F (1991)
Min Temperature 32 °F 35 °F 18 °F (1986)
Degree Days  
Heating Degree Days 24    
Moisture  
Dew Point 31 °F    
Average Humidity 72    
Maximum Humidity 85    
Minimum Humidity 50    
Precipitation  
Precipitation 0.00 in - - ()
Sea Level Pressure  
Sea Level Pressure 30.17 in    
Wind  
Wind Speed 6 mph (North)    
Max Wind Speed 13 mph    
Max Gust Speed -    
Visibility 10 miles    
Events      
Averages and records for this station are not official NWS values.
T = Trace of Precipitation, MM = Missing Value Source: NWS Daily Summary

Daily Weather History Graph

Daily Weather History Graph

Search for Another Location

Airport:

Trip Planner

Search our weather history database for the weather conditions in past years. The results will help you decide how hot, cold, wet, or windy it might be!

Date:

Astronomy

Nov. 20, 2012 Rise Set
Actual Time 6:46 AM EST 4:28 PM EST
Civil Twilight 6:16 AM EST 4:58 PM EST
Nautical Twilight 5:42 AM EST 5:31 PM EST
Astronomical Twilight 5:09 AM EST 6:04 PM EST
Moon 12:16 PM EST (11/20) 11:59 PM EST (11/20)
Length of Visible Light 10h 42m
Length of Day
9h 42m
Waxing Crescent, 51% of the Moon is Illuminated
Nov 20
Waxing Crescent
Nov 28
Full
Dec 6
Last Quarter
Dec 13
New
Dec 20
First Quarter

Hourly Weather History & Observations

Time (EST) Temp. Windchill Dew Point Humidity Pressure Visibility Wind Dir Wind Speed Gust Speed Precip Events Conditions
12:53 AM 33.1 °F 27.7 °F 28.0 °F 82% 30.24 in 10.0 mi North 5.8 mph - N/A   Clear
1:53 AM 33.1 °F 26.9 °F 28.9 °F 85% 30.24 in 10.0 mi North 6.9 mph - N/A   Clear
2:53 AM 34.0 °F 27.2 °F 30.0 °F 85% 30.23 in 10.0 mi North 8.1 mph - N/A   Clear
3:53 AM 32.0 °F 27.5 °F 28.0 °F 85% 30.20 in 10.0 mi NNE 4.6 mph - N/A   Clear
4:53 AM 32.0 °F 25.6 °F 28.0 °F 85% 30.19 in 10.0 mi North 6.9 mph - N/A   Clear
5:53 AM 34.0 °F 28.0 °F 28.0 °F 79% 30.20 in 10.0 mi North 6.9 mph - N/A   Mostly Cloudy
6:53 AM 34.0 °F 26.0 °F 27.0 °F 75% 30.20 in 10.0 mi North 10.4 mph - N/A   Mostly Cloudy
7:53 AM 34.0 °F 25.5 °F 28.0 °F 79% 30.20 in 10.0 mi North 11.5 mph - N/A   Mostly Cloudy
8:53 AM 37.9 °F 30.0 °F 30.0 °F 73% 30.20 in 10.0 mi North 12.7 mph - N/A   Mostly Cloudy
9:53 AM 43.0 °F 37.7 °F 30.9 °F 62% 30.19 in 10.0 mi North 9.2 mph - N/A   Mostly Cloudy
10:53 AM 46.0 °F 41.9 °F 32.0 °F 58% 30.18 in 10.0 mi North 8.1 mph - N/A   Clear
11:53 AM 46.9 °F - 33.1 °F 59% 30.15 in 10.0 mi North 6.9 mph - N/A   Overcast
12:53 PM 48.9 °F - 34.0 °F 56% 30.15 in 10.0 mi Variable 5.8 mph - N/A   Overcast
1:53 PM 50.0 °F - 33.1 °F 52% 30.13 in 10.0 mi North 4.6 mph - N/A   Overcast
2:53 PM 51.1 °F - 33.1 °F 50% 30.12 in 10.0 mi North 5.8 mph - N/A   Mostly Cloudy
3:53 PM 48.0 °F - 33.1 °F 56% 30.13 in 10.0 mi NNE 4.6 mph - N/A   Overcast
4:53 PM 46.0 °F - 33.1 °F 61% 30.14 in 10.0 mi Calm Calm - N/A   Clear
5:53 PM 39.9 °F - 30.9 °F 70% 30.14 in 10.0 mi Calm Calm - N/A   Clear
6:53 PM 37.9 °F 35.5 °F 32.0 °F 79% 30.14 in 10.0 mi North 3.5 mph - N/A   Clear
7:53 PM 37.9 °F - 32.0 °F 79% 30.15 in 10.0 mi Calm Calm - N/A   Clear
8:53 PM 37.9 °F - 33.1 °F 83% 30.15 in 10.0 mi Calm Calm - N/A   Clear
9:53 PM 37.9 °F - 33.1 °F 83% 30.16 in 10.0 mi Calm Calm - N/A   Clear
10:53 PM 39.0 °F 35.7 °F 30.9 °F 73% 30.15 in 10.0 mi NNE 4.6 mph - N/A   Clear
11:53 PM 37.9 °F 32.7 °F 30.0 °F 73% 30.16 in 10.0 mi North 6.9 mph - N/A   Clear